Location: Neuvy Saint Sepulchre
(46.5953°N, 1.8122°E)
Time: 13:19:20
(UTC+02:00)

ISS - Pass Details

Date: 05 October 2022
Orbit: 414 x 417 km, 51.6° (Epoch: 01 October)

Event Time Altitude Azimuth Distance (km) Brightness Sun altitude
Rises 20:26:18 0° 289° (WNW) 2,358 1.8 -11.3°
Reaches altitude 10° 20:28:45 10° 271° (W) 1,491 0.6 -11.8°
Maximum altitude 20:31:16 20° 223° (SW) 1,030 -1.3 -12.2°
Drops below altitude 10° 20:33:47 10° 174° (S) 1,484 -1.1 -12.6°
Enters shadow 20:35:25 - 160° (SSE) 2,047 -0.5 -12.9°
